#timestamp,LO_Frequency,Hit,StdDev 
1644120015.9,286046996.8,N
1644120035.7,286046997.3,N
1644120055.5,286046999.1,N
1644120075.4,286046996.8,N
1644120095.2,286046995.4,N
1644120115.1,286046995.3,N
1644120116.0,286046995.3,N
1644120135.8,286046995.7,N
1644120155.6,286046996.3,N
1644120175.5,286046994.9,N
1644120195.3,286046997.2,N
1644120215.1,286046995.4,N
1644120235.9,286046997.0,N
1644120255.7,286046999.4,N
1644120275.6,286046999.4,N
1644120295.4,286046997.1,N
1644120315.2,286046997.7,N
1644120335.1,286046997.5,N
1644120336.0,286046997.5,N
1644120355.8,286046995.4,N
1644120375.6,286046995.0,N
1644120395.5,286046997.2,N
1644120415.3,286046997.4,N
1644120435.2,286046999.6,N
1644120455.9,286046997.2,N
1644120475.7,286046997.8,N
1644120495.6,286046997.1,N
1644120515.4,286046999.2,N
1644120535.2,286046994.9,Y
1644120555.1,286047000.4,P
1644120556.0,286047000.4,N
1644120575.8,286047000.1,N
1644120595.7,286047000.0,N
1644120615.5,286046999.8,N
1644120635.3,286047001.0,N
1644120655.2,286047000.2,N
1644120675.0,286047000.9,N
1644120675.9,286047000.9,N
1644120695.7,286047002.6,N
1644120715.6,286047002.8,N
1644120735.4,286047000.4,N
1644120755.3,286047000.3,N
1644120775.1,286047000.5,N
1644120795.8,286046999.3,N
1644120815.7,286046996.5,N
1644120835.5,286046998.9,N
1644120855.3,286047000.5,N
1644120875.2,286046998.9,N
1644120895.0,286046999.5,N
1644120895.9,286046999.5,N
1644120915.8,286046999.6,N
1644120935.6,286046996.9,N
1644120955.4,286046999.4,N
1644120975.3,286046999.1,N
1644120995.1,286047001.9,N
1644121015.9,286047001.0,N
1644121035.7,286047000.4,N
1644121055.5,286046998.3,N
1644121075.4,286046998.5,N
1644121095.2,286046998.4,N
1644121115.0,286046998.1,N
1644121115.9,286046998.1,N
1644121135.8,286046998.9,N
1644121155.6,286046999.2,N
1644121175.5,286046995.3,Y
1644121195.3,286046999.0,P
1644121215.1,286046999.2,N
1644121235.9,286046998.6,P
1644121255.7,286047000.8,N
1644121275.5,286047002.5,Y
1644121295.4,286046999.8,P
1644121315.2,286047000.4,N
1644121335.1,286047002.4,P
1644121336.0,286047002.4,N
1644121355.8,286047001.9,N
1644121375.6,286047004.3,Y
1644121395.5,286047002.6,P
1644121415.3,286047002.8,P
1644121435.2,286047000.1,N
1644121455.9,286046998.7,N
1644121475.7,286046999.6,N
1644121495.6,286046999.2,N
1644121515.4,286047000.6,N
1644121535.2,286047000.5,N
1644121555.1,286047000.4,N
1644121556.0,286047000.4,N
1644121575.8,286047000.6,N
1644121595.7,286047002.8,N
1644121615.5,286047001.3,N
1644121635.3,286046999.7,N
1644121655.2,286047000.1,N
1644121675.9,286047002.7,N
1644121695.7,286047001.5,N
1644121715.6,286047002.8,N
1644121735.4,286047000.1,N
1644121755.2,286047000.1,N
1644121775.1,286046998.8,N
1644121776.0,286046998.8,N
1644121795.8,286046999.0,N
1644121815.7,286047002.0,N
1644121835.5,286047000.1,N
1644121855.3,286047002.5,N
1644121875.2,286046999.8,N
1644121895.0,286046999.7,N
1644121895.9,286046999.7,N
1644121915.7,286047000.4,N
1644121935.6,286046999.0,N
1644121955.4,286046998.3,N
1644121975.3,286047002.4,N
1644121995.1,286047002.0,N
1644121996.0,286047002.0,N
1644122015.8,286047002.4,N
1644122035.7,286047000.0,N
1644122055.5,286047000.1,N
1644122075.3,286047000.8,N
1644122095.2,286046998.7,N
1644122115.0,286047000.3,N
1644122115.9,286047000.3,N
1644122135.8,286047002.7,N
1644122155.6,286047001.7,N
1644122175.4,286047001.6,N
1644122195.3,286047000.6,N
1644122215.1,286047000.1,N
1644122235.8,286047002.5,N
1644122255.7,286047002.2,N
1644122275.5,286047001.6,N
1644122295.4,286047002.0,N
1644122315.2,286047001.0,N
1644122335.0,286047001.2,N
1644122335.9,286047001.2,N
1644122355.8,286047001.0,N
1644122375.6,286047000.0,N
1644122395.4,286047000.5,N
1644122415.3,286046998.1,N
1644122435.1,286046998.6,N
1644122455.9,286047002.0,N
1644122475.7,286047002.4,N
1644122495.5,286047002.6,N
1644122515.4,286047004.1,Y
1644122535.2,286047001.1,P
1644122555.0,286047001.0,P
1644122556.0,286047001.0,P
1644122575.8,286046998.6,Y
1644122595.6,286046996.5,P
1644122615.5,286046997.8,N
1644122635.3,286046995.0,N
1644122655.1,286046997.1,N
1644122675.9,286046999.3,N
1644122695.7,286047001.1,N
1644122715.6,286046998.2,N
1644122735.4,286047002.8,N
1644122755.2,286047000.9,N
1644122775.1,286047001.5,N
1644122776.0,286047001.5,N
1644122795.8,286046998.3,N
1644122815.6,286046999.6,N
1644122835.5,286047001.2,N
1644122855.3,286046998.9,N
1644122875.2,286046996.6,N
1644122895.9,286046998.6,N
1644122915.7,286047004.2,N
1644122935.6,286047002.6,N
1644122955.4,286047000.1,N
1644122975.2,286047001.0,N
1644122995.1,286047002.4,N
1644122996.0,286047002.4,N
1644123015.8,286047002.4,N
1644123035.7,286047000.7,N
1644123055.5,286047002.5,N
1644123075.3,286046998.3,N
1644123095.2,286047002.3,N
1644123115.0,286046998.2,N
1644123115.9,286046998.2,N
1644123135.7,286046998.5,N
1644123155.6,286046998.1,N
1644123175.4,286047004.1,N
1644123195.3,286047003.6,N
1644123215.1,286047002.0,N
1644123216.0,286047002.0,N
1644123235.8,286047001.5,N
1644123255.7,286047001.8,N
1644123275.5,286047002.1,N
1644123295.3,286047002.7,N
1644123315.2,286047001.9,N
1644123335.0,286047001.9,N
1644123335.9,286047001.9,N
1644123355.8,286047002.4,N
1644123375.6,286047002.6,N
1644123395.4,286047004.4,N
1644123415.3,286047004.8,N
1644123435.1,286047006.6,Y
1644123455.9,286047003.3,P
1644123475.7,286047005.1,P
1644123495.5,286047007.1,P
1644123515.4,286047004.9,N
1644123535.2,286047003.0,N
1644123555.0,286047003.3,N
1644123555.9,286047003.3,N
1644123575.8,286047006.7,Y
1644123595.6,286047003.1,P
